User: anonymous   Login
Location: Writing-on-Stone Provincial Park
(49.0825°N, 111.6163°W)
Time: 13:26:06
(UTC-06:00)
Language:

BREEZE-M DEB (TANK) - Orbit

View from above orbital plane
View from above orbital plane
View from above satellite
View from above satellite

Ground track
Ground track

The orbit data is extracted from the following two-line orbital elements,

1 29649U 06056B   15210.89225793  .00002498  00000-0  66354-3 0  9991
2 29649 049.5057 015.8864 5384164 092.8899 029.4756 04.97074382153455
Epoch (UTC): 29 July 2015 21:24:51
Eccentricity: 0.5384164
inclination: 49.5057°
perigee height: 316 km
apogee height: 15933 km
right ascension of ascending node: 15.8864°
argument of perigee: 92.8899°
revolutions per day: 4.97074382
mean anomaly at epoch: 29.4756°
orbit number at epoch: 15345

The dashed part of the orbit path shows where the satellite is in the earth's shadow,  

DLR